YAOGAN-26

Last updated on Mon Jun 22 2026 00:02:51 GMT+0000 (Coordinated Universal Time)

1 40362U 14088A 26172.53086809 .00017149 00000+0 33512-3 0 9991 2 40362 97.0643 172.6381 0005541 57.7340 302.4447 15.47500088638374
UTC large
Height (km)
Speed (km/s)
/
Latitude / Longitude
Inclination (degrees)
Orbital Period (minutes)
Azimuth
Elevation
Range (km)
Doppler Factor

Next 0 passes for location: London (51.5072 / 0.1276)

No passes found over London.
YAOGAN-26